Regional Weather Roundup
Issued by NWS

Home | Current Version | Previous Version | Text Only | Print | Product List | Glossary On
Versions: 1 2 3 4 5 6 7 8 9 10 11 12 13 14 15 16 17 18 19 20 21 22 23 24 25 26 27 28 29 30 31 32 33 34 35 36 37 38 39 40 41 42 43 44 45 46 47 48 49 50
267
ASUS43 KBIS 290302
RWRND

NORTH DAKOTA REGIONAL WEATHER ROUNDUP
NATIONAL WEATHER SERVICE BISMARCK ND
1000 PM CDT WED SEP 28 2016

NOTE: "FAIR" INDICATES FEW OR NO CLOUDS BELOW 12,000 FEET WITH NO
SIGNIFICANT WEATHER AND/OR OBSTRUCTIONS TO VISIBILITY.


NDZ001>003-009>011-017-290400-
NORTHWEST NORTH DAKOTA

CITY           SKY/WX    TMP DP  RH WIND       PRES   REMARKS
WILLISTON      CLEAR     63  38  39 SE9       30.27R
MINOT          CLEAR     53  47  79 SE8       30.35R
MINOT AFB      CLEAR     47  44  89 SE6       30.34R
$$

NDZ018>021-031>035-040>046-290400-
SOUTHWEST NORTH DAKOTA

CITY           SKY/WX    TMP DP  RH WIND       PRES   REMARKS
BISMARCK       CLEAR     49  46  90 E8        30.37R
DICKINSON      CLEAR     55  32  41 SE14      30.30R
GARRISON         N/A     51  48  89 E6        30.34R
HETTINGER ARPT CLEAR     56  36  47 E12       30.33R
$$

NDZ004>008-012>016-024-026-027-054-290400-
NORTHEAST NORTH DAKOTA

CITY           SKY/WX    TMP DP  RH WIND       PRES   REMARKS
GRAND FORKS    PTCLDY    47  44  90 N3        30.39R
GRND FRKS AFB  CLEAR     43  42  96 CALM      30.40R
DEVILS LAKE    CLEAR     51  47  86 E8        30.39R
$$

NDZ022-023-025-028>030-036>039-047>053-290400-
SOUTHEAST NORTH DAKOTA

CITY           SKY/WX    TMP DP  RH WIND       PRES   REMARKS
FARGO          CLEAR     51  45  79 E8        30.39R
JAMESTOWN      CLEAR     49  44  83 E7        30.38R HAZE
$$





USA.gov is the U.S. government's official web portal to all federal, state and local government web resources and services.